H1 CPF 2 NER 2022 2 27 9 058 01 glonass133 H2 1403201 9133 40001 2022 2 27 0 0 0 2022 3 2 23 45 0 900 1 1 0 0 0 1 H9 10 0 59637 0.00000 0 -18251309.841 -15267599.826 9219108.632 10 0 59637 900.00000 0 -17178393.084 -14481596.832 12098196.917 10 0 59637 1800.00000 0 -15738787.559 -13641687.473 14742552.324 10 0 59637 2700.00000 0 -13951097.891 -12807548.258 17100862.907 10 0 59637 3600.00000 0 -11846811.736 -12035472.091 19127358.578 10 0 59637 4500.00000 0 -9469218.463 -11375894.794 20782696.566 10 0 59637 5400.00000 0 -6871842.432 -10871184.136 22034723.008 10 0 59637 6300.00000 0 -4116454.911 -10553784.219 22859096.328 10 0 59637 7200.00000 0 -1270746.192 -10444793.215 23239760.588 10 0 59637 8100.00000 0 1594246.583 -10553034.289 23169259.830 10 0 59637 9000.00000 0 4406850.244 -10874659.055 22648887.285 10 0 59637 9900.00000 0 7097493.442 -11393300.659 21688666.275 10 0 59637 10800.00000 0 9601358.788 -12080770.687 20307162.704 10 0 59637 11700.00000 0 11860839.840 -12898271.305 18531132.087 10 0 59637 12600.00000 0 13827701.205 -13798072.365 16395007.192 10 0 59637 13500.00000 0 15464852.298 -14725583.518 13940235.422 10 0 59637 14400.00000 0 16747661.068 -15621734.479 11214478.074 10 0 59637 15300.00000 0 17664753.049 -16425563.293 8270686.521 10 0 59637 16200.00000 0 18218262.646 -17076903.273 5166072.977 10 0 59637 17100.00000 0 18423526.531 -17519054.733 1960995.817 10 0 59637 18000.00000 0 18308232.582 -17701327.947 -1282218.444 10 0 59637 18900.00000 0 17911060.959 -17581348.975 -4500493.084 10 0 59637 19800.00000 0 17279875.427 -17127029.850 -7631234.589 10 0 59637 20700.00000 0 16469542.244 -16318118.839 -10613556.578 10 0 59637 21600.00000 0 15539469.685 -15147264.272 -13389469.690 10 0 59637 22500.00000 0 14550973.065 -13620546.088 -15905013.568 10 0 59637 23400.00000 0 13564577.357 -11757451.932 -18111308.369 10 0 59637 24300.00000 0 12637371.875 -9590298.072 -19965505.198 10 0 59637 25200.00000 0 11820528.949 -7163118.811 -21431617.042 10 0 59637 26100.00000 0 11157091.324 -4530070.485 -22481214.340 10 0 59637 27000.00000 0 10680121.231 -1753416.201 -23093972.221 10 0 59637 27900.00000 0 10411288.676 1098825.070 -23258059.424 10 0 59637 28800.00000 0 10359957.726 3955467.602 -22970361.960 10 0 59637 29700.00000 0 10522808.581 6744879.135 -22236537.822 10 0 59637 30600.00000 0 10884010.639 9397719.891 -21070902.108 10 0 59637 31500.00000 0 11415938.701 11849587.264 -19496145.110 10 0 59637 32400.00000 0 12080401.705 14043457.287 -17542888.987 10 0 59637 33300.00000 0 12830331.956 15931822.367 -15249091.542 10 0 59637 34200.00000 0 13611863.543 17478437.362 -12659308.620 10 0 59637 35100.00000 0 14366712.299 18659602.448 -9823829.218 10 0 59637 36000.00000 0 15034757.013 19464930.434 -6797699.876 10 0 59637 36900.00000 0 15556713.047 19897567.611 -3639657.198 10 0 59637 37800.00000 0 15876785.603 19973860.080 -410989.124 10 0 59637 38700.00000 0 15945190.639 19722480.599 2825653.021 10 0 59637 39600.00000 0 15720436.955 19183053.573 6007468.514 10 0 59637 40500.00000 0 15171272.929 18404336.726 9072723.710 10 0 59637 41400.00000 0 14278215.435 17442036.530 11961947.406 10 0 59637 42300.00000 0 13034595.985 16356349.672 14619081.890 10 0 59637 43200.00000 0 11447079.322 15209334.159 16992567.537 10 0 59637 44100.00000 0 9535631.685 14062220.632 19036340.204 10 0 59637 45000.00000 0 7332938.971 12972776.759 20710722.365 10 0 59637 45900.00000 0 4883297.805 11992835.210 21983191.159 10 0 59637 46800.00000 0 2241024.373 11166088.700 22829008.861 10 0 59637 47700.00000 0 -531554.046 10526244.403 23231703.849 10 0 59637 48600.00000 0 -3366442.727 10095614.935 23183392.935 10 0 59637 49500.00000 0 -6192562.303 9884204.955 22684938.790 10 0 59637 50400.00000 0 -8938464.518 9889331.770 21745939.148 10 0 59637 51300.00000 0 -11535069.216 10095796.061 20384547.536 10 0 59637 52200.00000 0 -13918309.650 10476595.878 18627128.313 10 0 59637 53100.00000 0 -16031576.597 10994154.277 16507751.953 10 0 59637 54000.00000 0 -17827859.971 11602009.281 14067539.556 10 0 59637 54900.00000 0 -19271498.846 12246895.238 11353868.539 10 0 59637 55800.00000 0 -20339466.861 12871127.889 8419454.455 10 0 59637 56700.00000 0 -21022139.393 13415192.295 5321326.437 10 0 59637 57600.00000 0 -21323510.503 13820423.866 2119716.173 10 0 59637 58500.00000 0 -21260850.817 14031668.452 -1123117.616 10 0 59637 59400.00000 0 -20863821.244 13999808.084 -4344105.782 10 0 59637 60300.00000 0 -20173080.487 13684044.486 -7480602.032 10 0 59637 61200.00000 0 -19238445.830 13053842.638 -10471607.933 10 0 59637 62100.00000 0 -18116685.680 12090451.144 -13258965.028 10 0 59637 63000.00000 0 -16869037.839 10787934.125 -15788490.162 10 0 59637 63900.00000 0 -15558559.021 9153670.171 -18011031.374 10 0 59637 64800.00000 0 -14247417.960 7208296.501 -19883423.657 10 0 59637 65700.00000 0 -12994246.522 4985099.869 -21369326.070 10 0 59637 66600.00000 0 -11851660.443 2528879.153 -22439924.206 10 0 59637 67500.00000 0 -10864053.759 -105673.432 -23074484.926 10 0 59637 68400.00000 0 -10065759.123 -2856005.500 -23260753.210 10 0 59637 69300.00000 0 -9479650.581 -5654067.815 -22995184.063 10 0 59637 70200.00000 0 -9116246.587 -8428910.022 -22283005.585 10 0 59637 71100.00000 0 -8973349.946 -11109401.527 -21138112.446 10 0 59637 72000.00000 0 -9036238.865 -13626965.057 -19582792.138 10 0 59637 72900.00000 0 -9278400.164 -15918210.107 -17647289.476 10 0 59637 73800.00000 0 -9662773.090 -17927357.629 -15369217.716 10 0 59637 74700.00000 0 -10143450.760 -19608355.855 -12792827.649 10 0 59637 75600.00000 0 -10667767.149 -20926600.119 -9968148.642 10 0 59637 76500.00000 0 -11178681.325 -21860185.886 -6950018.060 10 0 59637 77400.00000 0 -11617358.134 -22400643.553 -3797017.822 10 0 59637 78300.00000 0 -11925836.295 -22553125.294 -570338.622 10 0 59637 79200.00000 0 -12049671.054 -22336037.010 2667406.191 10 0 59637 80100.00000 0 -11940439.664 -21780131.634 5853393.943 10 0 59637 81000.00000 0 -11558003.635 -20927102.576 8925809.595 10 0 59637 81900.00000 0 -10872431.927 -19827736.942 11825042.756 10 0 59637 82800.00000 0 -9865503.482 -18539706.481 14494841.448 10 0 59637 83700.00000 0 -8531725.110 -17125089.276 16883400.482 10 0 59637 84600.00000 0 -6878820.987 -15647726.214 18944363.586 10 0 59637 85500.00000 0 -4927672.135 -14170523.052 20637720.154 10 0 59638 0.00000 0 -2711707.286 -12752811.059 21930579.588 10 0 59638 900.00000 0 -275767.860 -11447875.683 22797809.264 10 0 59638 1800.00000 0 2325504.023 -10300758.282 23222522.368 10 0 59638 2700.00000 0 5029692.943 -9346419.979 23196408.729 10 0 59638 3600.00000 0 7768967.176 -8608346.112 22719900.332 10 0 59638 4500.00000 0 10472669.771 -8097648.686 21802168.848 10 0 59638 5400.00000 0 13070036.982 -7812704.434 20460954.626 10 0 59638 6300.00000 0 15492932.003 -7739343.594 18722229.773 10 0 59638 7200.00000 0 17678480.796 -7851581.546 16619701.085 10 0 59638 8100.00000 0 19571500.701 -8112862.585 14194161.686 10 0 59638 9000.00000 0 21126620.703 -8477763.487 11492703.158 10 0 59638 9900.00000 0 22310004.709 -8894084.971 8567802.985 10 0 59638 10800.00000 0 23100605.725 -9305242.507 5476304.709 10 0 59638 11700.00000 0 23490898.285 -9652854.964 2278310.573 10 0 59638 12600.00000 0 23487058.361 -9879420.939 -963991.417 10 0 59638 13500.00000 0 23108583.441 -9930968.620 -4187542.689 10 0 59638 14400.00000 0 22387369.081 -9759565.959 -7329647.153 10 0 59638 15300.00000 0 21366281.391 -9325583.807 -10329197.196 10 0 59638 16200.00000 0 20097286.300 -8599615.117 -13127867.942 10 0 59638 17100.00000 0 18639215.148 -7563967.960 -15671255.889 10 0 59638 18000.00000 0 17055261.511 -6213668.318 -17909939.145 10 0 59638 18900.00000 0 15410315.229 -4556929.438 -19800438.514 10 0 59638 19800.00000 0 13768246.205 -2615067.116 -21306060.773 10 0 59638 20700.00000 0 12189252.320 -421863.768 -22397608.018 10 0 59638 21600.00000 0 10727382.618 1977592.810 -23053939.865 10 0 59638 22500.00000 0 9428339.238 4528548.094 -23262378.218 10 0 59638 23400.00000 0 8327649.482 7168629.104 -23018947.371 10 0 59638 24300.00000 0 7449283.652 9830217.572 -22328445.426 10 0 59638 25200.00000 0 6804775.407 12443049.894 -21204346.118 10 0 59638 26100.00000 0 6392880.327 14936936.270 -19668533.221 10 0 59638 27000.00000 0 6199785.750 17244486.639 -17750872.888 10 0 59638 27900.00000 0 6199861.942 19303730.721 -15488632.126 10 0 59638 28800.00000 0 6356922.046 21060523.692 -12925754.604 10 0 59638 29700.00000 0 6625936.929 22470638.035 -10112007.648 10 0 59638 30600.00000 0 6955132.021 23501455.007 -7102016.729 10 0 59638 31500.00000 0 7288377.234 24133185.740 -3954206.114 10 0 59638 32400.00000 0 7567768.687 24359571.691 -729666.110 10 0 59638 33300.00000 0 7736292.905 24188035.766 2509031.147 10 0 59638 34200.00000 0 7740460.700 23639278.417 5699044.261 10 0 59638 35100.00000 0 7532799.163 22746336.248 8778479.944 10 0 59638 36000.00000 0 7074096.215 21553143.035 11687591.580 10 0 59638 36900.00000 0 6335302.538 20112653.882 14369935.674 10 0 59638 37800.00000 0 5299010.117 18484611.343 16773463.949 10 0 59638 38700.00000 0 3960444.321 16733047.134 18851530.191 10 0 59638 39600.00000 0 2327926.843 14923623.973 20563792.597 10 0 59638 40500.00000 0 422788.846 13120928.483 21876994.589 10 0 59638 41400.00000 0 -1721263.524 11385827.951 22765609.360 10 0 59638 42300.00000 0 -4059306.206 9773000.989 23212335.972 10 0 59638 43200.00000 0 -6536830.274 8328744.713 23208437.616 10 0 59638 44100.00000 0 -9091784.507 7089149.505 22753915.441 10 0 59638 45000.00000 0 -11656943.888 6078717.232 21857514.374 10 0 59638 45900.00000 0 -14162506.772 5309480.236 20536560.351 10 0 59638 46800.00000 0 -16538813.699 4780657.664 18816631.435 10 0 59638 47700.00000 0 -18719075.338 4478863.293 16731068.452 10 0 59638 48600.00000 0 -20641996.303 4378855.908 14320333.813 10 0 59638 49500.00000 0 -22254185.577 4444800.436 11631230.194 10 0 59638 50400.00000 0 -23512252.629 4631986.470 8715993.731 10 0 59638 51300.00000 0 -24384501.322 4888931.289 5631278.991 10 0 59638 52200.00000 0 -24852150.315 5159777.977 2437055.410 10 0 59638 53100.00000 0 -24910028.431 5386886.525 -804562.992 10 0 59638 54000.00000 0 -24566715.646 5513507.348 -4030531.333 10 0 59638 54900.00000 0 -23844123.812 5486422.967 -7178106.665 10 0 59638 55800.00000 0 -22776534.972 5258444.897 -10186074.931 10 0 59638 56700.00000 0 -21409138.204 4790658.862 -12995947.361 10 0 59638 57600.00000 0 -19796127.134 4054322.272 -15553102.374 10 0 59638 58500.00000 0 -17998438.786 3032332.706 -17807850.118 10 0 59638 59400.00000 0 -16081229.430 1720204.530 -19716398.818 10 0 59638 60300.00000 0 -14111193.844 126511.597 -21241704.153 10 0 59638 61200.00000 0 -12153840.722 -1727223.308 -22354185.453 10 0 59638 62100.00000 0 -10270838.347 -3807188.350 -23032295.336 10 0 59638 63000.00000 0 -8517541.239 -6068464.932 -23262932.382 10 0 59638 63900.00000 0 -6940800.640 -8456683.535 -23041689.454 10 0 59638 64800.00000 0 -5577149.380 -10910084.662 -22372933.496 10 0 59638 65700.00000 0 -4451435.818 -13361899.604 -21269715.726 10 0 59638 66600.00000 0 -3575962.698 -15742952.390 -19753514.273 10 0 59638 67500.00000 0 -2950165.509 -17984375.199 -17853814.395 10 0 59638 68400.00000 0 -2560842.412 -20020324.725 -15607534.385 10 0 59638 69300.00000 0 -2382924.791 -21790586.828 -13058308.171 10 0 59638 70200.00000 0 -2380754.865 -23242961.397 -10255638.348 10 0 59638 71100.00000 0 -2509815.562 -24335328.425 -7253935.810 10 0 59638 72000.00000 0 -2718839.002 -25037309.412 -4111464.544 10 0 59638 72900.00000 0 -2952203.963 -25331455.071 -889211.949 10 0 59638 73800.00000 0 -3152520.610 -25213910.087 2350293.457 10 0 59638 74700.00000 0 -3263292.921 -24694527.441 5544193.834 10 0 59638 75600.00000 0 -3231545.956 -23796427.877 8630519.814 10 0 59638 76500.00000 0 -3010306.649 -22555023.258 11549390.614 10 0 59638 77400.00000 0 -2560833.010 -21016544.916 14244173.150 10 0 59638 78300.00000 0 -1854497.194 -19236138.751 16662577.845 10 0 59638 79200.00000 0 -874242.449 -17275606.698 18757670.144 10 0 59638 80100.00000 0 384448.152 -15200888.894 20488778.405 10 0 59638 81000.00000 0 1913112.966 -13079391.383 21822281.042 10 0 59638 81900.00000 0 3690422.690 -10977270.447 22732258.062 10 0 59638 82800.00000 0 5682837.684 -8956786.368 23200994.687 10 0 59638 83700.00000 0 7845785.802 -7073836.323 23219327.540 10 0 59638 84600.00000 0 10125313.225 -5375768.621 22786826.672 10 0 59638 85500.00000 0 12460140.895 -3899568.869 21911809.689 10 0 59639 0.00000 0 14784042.091 -2670493.266 20611187.378 10 0 59639 900.00000 0 17028444.455 -1701204.936 18910142.383 10 0 59639 1800.00000 0 19125145.676 -991450.646 16841648.268 10 0 59639 2700.00000 0 21009034.245 -528288.756 14445835.098 10 0 59639 3600.00000 0 22620698.711 -286860.170 11769214.763 10 0 59639 4500.00000 0 23908817.403 -231668.694 8863779.919 10 0 59639 5400.00000 0 24832228.062 -318316.467 5785993.805 10 0 59639 6300.00000 0 25361590.083 -495620.546 2595690.480 10 0 59639 7200.00000 0 25480569.065 -708020.461 -645092.750 10 0 59639 8100.00000 0 25186493.454 -898173.924 -3873327.505 10 0 59639 9000.00000 0 24490455.353 -1009629.765 -7026226.795 10 0 59639 9900.00000 0 23416851.165 -989463.801 -10042472.826 10 0 59639 10800.00000 0 22002381.500 -790764.869 -12863415.474 10 0 59639 11700.00000 0 20294552.683 -374864.716 -15434217.372 10 0 59639 12600.00000 0 18349743.301 286783.566 -17704922.756 10 0 59639 13500.00000 0 16230917.408 1211158.800 -19631429.062 10 0 59639 14400.00000 0 14005080.682 2402718.518 -21176342.434 10 0 59639 15300.00000 0 11740586.389 3852980.099 -22309700.761 10 0 59639 16200.00000 0 9504403.870 5540654.501 -23009550.762 10 0 59639 17100.00000 0 7359463.411 7432327.577 -23262368.536 10 0 59639 18000.00000 0 5362187.860 9483660.988 -23063316.063 10 0 59639 18900.00000 0 3560313.093 11641063.056 -22416329.338 10 0 59639 19800.00000 0 1991087.110 13843760.376 -21334036.891 10 0 59639 20700.00000 0 679921.645 16026184.204 -19837510.610 10 0 59639 21600.00000 0 -360448.935 18120572.664 -17955853.843 10 0 59639 22500.00000 0 -1130267.813 20059680.736 -15725634.715 10 0 59639 23400.00000 0 -1642503.908 21779485.342 -13190175.549 10 0 59639 24300.00000 0 -1922060.084 23221773.051 -10398711.957 10 0 59639 25200.00000 0 -2004475.927 24336502.628 -7405437.663 10 0 59639 26100.00000 0 -1934180.760 25083843.889 -4268453.505 10 0 59639 27000.00000 0 -1762371.427 25435807.809 -1048640.889 10 0 59639 27900.00000 0 -1544605.119 25377399.822 2191518.486 10 0 59639 28800.00000 0 -1338209.409 24907248.111 5389153.595 10 0 59639 29700.00000 0 -1199619.374 24037680.714 8482222.189 10 0 59639 30600.00000 0 -1181754.638 22794248.237 11410712.411 10 0 59639 31500.00000 0 -1331547.457 21214712.172 14117804.501 10 0 59639 32400.00000 0 -1687726.531 19347541.091 16550970.270 10 0 59639 33300.00000 0 -2278950.468 17249977.344 18662989.256 10 0 59639 34200.00000 0 -3122370.064 14985754.807 20412862.139 10 0 59639 35100.00000 0 -4222680.697 12622562.439 21766604.180 10 0 59639 36000.00000 0 -5571705.611 10229358.873 22697903.704 10 0 59639 36900.00000 0 -7148528.751 7873649.308 23188633.213 10 0 59639 37800.00000 0 -8920172.973 5618837.373 23229203.437 10 0 59639 38700.00000 0 -10842796.777 3521761.444 22818753.511 10 0 59639 39600.00000 0 -12863361.003 1630517.297 21965173.344 10 0 59639 40500.00000 0 -14921697.331 -17342.893 20684957.349 10 0 59639 41400.00000 0 -16952893.494 -1396160.800 19002891.680 10 0 59639 42300.00000 0 -18889896.475 -2493015.572 16951580.316 10 0 59639 43200.00000 0 -20666225.608 -3308026.157 14570818.338 10 0 59639 44100.00000 0 -22218682.388 -3854100.165 11906823.781 10 0 59639 45000.00000 0 -23489943.428 -4156140.353 9011342.443 10 0 59639 45900.00000 0 -24430927.532 -4249742.725 5940642.640 10 0 59639 46800.00000 0 -25002836.984 -4179441.852 2754419.389 10 0 59639 47700.00000 0 -25178786.547 -3996578.269 -485370.358 10 0 59639 48600.00000 0 -24944951.010 -3756879.092 -3715718.264 10 0 59639 49500.00000 0 -24301182.382 -3517855.241 -6873796.661 10 0 59639 50400.00000 0 -23261070.297 -3336126.602 -9898187.189 10 0 59639 51300.00000 0 -21851442.867 -3264789.485 -12730081.284 10 0 59639 52200.00000 0 -20111328.908 -3350938.917 -15314428.438 10 0 59639 53100.00000 0 -18090425.313 -3633451.540 -17601009.261 10 0 59639 54000.00000 0 -15847134.128 -4141123.649 -19545412.274 10 0 59639 54900.00000 0 -13446251.828 -4891243.715 -21109895.465 10 0 59639 55800.00000 0 -10956407.739 -5888660.066 -22264116.128 10 0 59639 56700.00000 0 -8447358.665 -7125383.508 -22985715.340 10 0 59639 57600.00000 0 -5987252.380 -8580741.968 -23260746.392 10 0 59639 58500.00000 0 -3639973.710 -10222081.101 -23083939.503 10 0 59639 59400.00000 0 -1462682.950 -12005981.886 -22458798.329 10 0 59639 60300.00000 0 496351.891 -13879944.751 -21397526.886 10 0 59639 61200.00000 0 2199539.886 -15784470.164 -19920788.621 10 0 59639 62100.00000 0 3621296.128 -17655449.215 -18057302.462 10 0 59639 63000.00000 0 4748860.904 -19426764.717 -15843283.625 10 0 59639 63900.00000 0 5582576.404 -21032994.438 -13321739.912 10 0 59639 64800.00000 0 6135610.976 -22412103.761 -10541636.937 10 0 59639 65700.00000 0 6433143.945 -23508015.363 -7556948.206 10 0 59639 66600.00000 0 6511046.513 -24272948.439 -4425608.390 10 0 59639 67500.00000 0 6414115.407 -24669429.596 -1208389.974 10 0 59639 68400.00000 0 6193934.618 -24671891.121 2032274.959 10 0 59639 69300.00000 0 5906456.172 -24267789.543 5233504.800 10 0 59639 70200.00000 0 5609402.628 -23458197.521 8333186.830 10 0 59639 71100.00000 0 5359601.437 -22257844.008 11271180.282 10 0 59639 72000.00000 0 5210364.007 -20694600.853 13990480.645 10 0 59639 72900.00000 0 5209020.427 -18808436.969 16438322.764 10 0 59639 73800.00000 0 5394714.089 -16649883.402 18567201.622 10 0 59639 74700.00000 0 5796549.523 -14278072.949 20335791.247 10 0 59639 75600.00000 0 6432171.880 -11758435.506 21709744.428 10 0 59639 76500.00000 0 7306838.462 -9160144.418 22662358.141 10 0 59639 77400.00000 0 8413022.157 -6553419.468 23175092.139 10 0 59639 78300.00000 0 9730564.451 -4006797.799 23237930.894 10 0 59639 79200.00000 0 11227372.901 -1584485.398 22849581.933 10 0 59639 80100.00000 0 12860635.112 656101.495 22017506.499 10 0 59639 81000.00000 0 14578499.817 2666503.587 20757781.541 10 0 59639 81900.00000 0 16322155.940 4409004.854 19094795.044 10 0 59639 82800.00000 0 18028223.658 5857964.100 17060779.866 10 0 59639 83700.00000 0 19631358.090 7000636.757 14695194.286 10 0 59639 84600.00000 0 21066956.978 7837453.158 12043960.502 10 0 59639 85500.00000 0 22273858.769 8381742.091 9158575.295 10 0 59640 0.00000 0 23196917.502 8658911.931 6095110.043 10 0 59640 900.00000 0 23789346.159 8705124.592 2913117.727 10 0 59640 1800.00000 0 24014727.928 8565518.714 -325527.313 10 0 59640 2700.00000 0 23848611.546 8292058.567 -3557839.342 10 0 59640 3600.00000 0 23279621.385 7941100.214 -6720952.539 10 0 59640 4500.00000 0 22310035.319 7570779.204 -9753350.377 10 0 59640 5400.00000 0 20955805.431 7238331.442 -12596068.071 10 0 59640 6300.00000 0 19246020.223 6997461.679 -15193843.955 10 0 59640 7200.00000 0 17221830.847 6895871.846 -17496196.753 10 0 59640 8100.00000 0 14934886.306 6973054.541 -19458407.584 10 0 59640 9000.00000 0 12445343.237 7258445.426 -21042387.602 10 0 59640 9900.00000 0 9819533.634 7770012.886 -22217414.642 10 0 59640 10800.00000 0 7127387.837 8513344.677 -22960725.133 10 0 59640 11700.00000 0 4439720.054 9481270.174 -23257950.381 10 0 59640 12600.00000 0 1825489.145 10654034.242 -23103389.455 10 0 59640 13500.00000 0 -650852.019 12000015.603 -22500114.019 10 0 59640 14400.00000 0 -2931809.276 13476959.793 -21459903.582 10 0 59640 15300.00000 0 -4969000.979 15033675.258 -20003012.771 10 0 59640 16200.00000 0 -6724924.631 16612121.862 -18157775.296 10 0 59640 17100.00000 0 -8174264.202 18149804.666 -15960052.242 10 0 59640 18000.00000 0 -9304685.073 19582372.966 -13452535.266 10 0 59640 18900.00000 0 -10117084.986 20846315.976 -10683917.988 10 0 59640 19800.00000 0 -10625291.993 21881642.341 -7707951.385 10 0 59640 20700.00000 0 -10855223.429 22634431.178 -4582401.393 10 0 59640 21600.00000 0 -10843542.542 23059147.605 -1367928.822 10 0 59640 22500.00000 0 -10635870.355 23120625.466 1873086.743 10 0 59640 23400.00000 0 -10284629.007 22795633.820 5077756.077 10 0 59640 24300.00000 0 -9846608.188 22073961.166 8183898.964 10 0 59640 25200.00000 0 -9380357.915 20958971.544 11131248.677 10 0 59640 26100.00000 0 -8943517.990 19467608.795 13862618.817 10 0 59640 27000.00000 0 -8590197.087 17629848.255 16325010.010 10 0 59640 27900.00000 0 -8368512.175 15487618.204 18470635.258 10 0 59640 28800.00000 0 -8318392.107 13093235.478 20257844.323 10 0 59640 29700.00000 0 -8469738.078 10507419.682 21651929.658 10 0 59640 30600.00000 0 -8841018.675 7796967.846 22625798.741 10 0 59640 31500.00000 0 -9438358.999 5032185.413 23160500.077 10 0 59640 32400.00000 0 -10255162.824 2284179.362 23245592.980 10 0 59640 33300.00000 0 -11272284.493 -377875.031 22879354.006 10 0 59640 34200.00000 0 -12458744.344 -2889381.136 22068815.844 10 0 59640 35100.00000 0 -13772958.804 -5192772.463 20829637.528 10 0 59640 36000.00000 0 -15164434.678 -7239667.585 19185807.837 10 0 59640 36900.00000 0 -16575857.580 -8992639.338 17169186.882 10 0 59640 37800.00000 0 -17945487.689 -10426525.168 14818893.975 10 0 59640 38700.00000 0 -19209762.773 -11529224.426 12180552.817 10 0 59640 39600.00000 0 -20305999.245 -12301949.685 9305408.119 10 0 59640 40500.00000 0 -21175077.499 -12758922.136 6249330.395 10 0 59640 41400.00000 0 -21763997.975 -12926524.503 3071728.152 10 0 59640 42300.00000 0 -22028199.506 -12841947.833 -165611.079 10 0 59640 43200.00000 0 -21933541.331 -12551390.171 -3399727.836 10 0 59640 44100.00000 0 -21457864.176 -12107884.135 -6567721.756 10 0 59640 45000.00000 0 -20592063.679 -11568846.313 -9607981.656 10 0 59640 45900.00000 0 -19340630.057 -10993453.188 -12461389.868 10 0 59640 46800.00000 0 -17721630.609 -10439955.650 -15072476.672 10 0 59640 47700.00000 0 -15766135.319 -9963046.536 -17390501.705 10 0 59640 48600.00000 0 -13517109.332 -9611393.229 -19370441.084 10 0 59640 49500.00000 0 -11027818.493 -9425440.003 -20973861.034 10 0 59640 50400.00000 0 -8359814.557 -9435573.148 -22169661.293 10 0 59640 51300.00000 0 -5580584.025 -9660726.289 -22934674.375 10 0 59640 52200.00000 0 -2760958.343 -10107484.577 -23254109.719 10 0 59640 53100.00000 0 27607.017 -10769725.289 -23121834.753 10 0 59640 54000.00000 0 2715772.060 -11628809.773 -22540488.099 10 0 59640 54900.00000 0 5238957.285 -12654318.601 -21521423.231 10 0 59640 55800.00000 0 7539785.183 -13805298.968 -20084484.003 10 0 59640 56700.00000 0 9570217.910 -15031972.088 -18257616.593 10 0 59640 57600.00000 0 11293303.504 -16277829.016 -16076325.321 10 0 59640 58500.00000 0 12684459.224 -17482027.095 -13582982.788 10 0 59640 59400.00000 0 13732239.929 -18581986.580 -10826007.480 10 0 59640 60300.00000 0 14438560.856 -19516078.501 -7858924.519 10 0 59640 61200.00000 0 14818366.768 -20226290.869 -4739327.662 10 0 59640 62100.00000 0 14898762.676 -20660761.119 -1527762.553 10 0 59640 63000.00000 0 14717643.804 -20776068.181 1713447.160 10 0 59640 63900.00000 0 14321883.387 -20539187.528 4921407.918 10 0 59640 64800.00000 0 13765155.441 -19929026.686 8033875.054 10 0 59640 65700.00000 0 13105484.864 -18937476.193 10990458.603 10 0 59640 66600.00000 0 12402628.569 -17569931.344 13733792.616 10 0 59640 67500.00000 0 11715398.308 -15845262.148 16210645.421 10 0 59640 68400.00000 0 11099038.128 -13795231.957 18372949.527 10 0 59640 69300.00000 0 10602766.936 -11463388.210 20178731.454 10 0 59640 70200.00000 0 10267589.631 -8903470.606 21592923.909 10 0 59640 71100.00000 0 10124468.849 -6177401.953 22588045.024 10 0 59640 72000.00000 0 10192934.325 -3352944.253 23144731.806 10 0 59640 72900.00000 0 10480188.502 -501116.331 23252117.778 10 0 59640 73800.00000 0 10980746.394 2306520.885 22908047.549 10 0 59640 74700.00000 0 11676625.435 5000599.624 22119123.968 10 0 59640 75600.00000 0 12538078.068 7516588.503 20900586.611 10 0 59640 76500.00000 0 13524837.188 9797234.671 19276023.271 10 0 59640 77400.00000 0 14587822.946 11794703.912 17276919.359 10 0 59640 78300.00000 0 15671239.904 13472330.144 14942053.087 10 0 59640 79200.00000 0 16714976.885 14805901.767 12316747.385 10 0 59640 80100.00000 0 17657208.738 15784431.442 9451992.496 10 0 59640 81000.00000 0 18437090.326 16410377.486 6403455.844 10 0 59640 81900.00000 0 18997428.783 16699308.111 3230398.319 10 0 59640 82800.00000 0 19287220.554 16679023.146 -5481.699 10 0 59640 83700.00000 0 19263945.271 16388171.023 -3241253.598 10 0 59640 84600.00000 0 18895518.542 15874420.253 -6413984.964 10 0 59640 85500.00000 0 18161820.167 15192263.525 -9461972.259 99